{"data":{"norad_id":65788,"intl_designator":"2025-217AC","name":"KUIPER-00176","alt_names":[],"object_type":"PAYLOAD","status":"ACTIVE","operator":null,"country":"US","launch_date":"2025-09-25","launch_site_code":"AFETR","launch_vehicle":null,"mission":null,"orbit_class":"UNKNOWN","rcs_meters":null,"size_class":null,"mass_kg":null,"dimensions":null,"purposes":[],"wikipedia_slug":null,"has_3d_model":false,"image_url":null,"decayed_at":null,"tle_current":{"epoch":"2026-05-25T04:40:12.436032Z","epoch_age_seconds":48429,"freshness":"FRESH","line1":"1 65788U 25217AC  26145.19458838 -.00001082  00000+0 -11294-3 0  9997","line2":"2 65788  51.9004  64.7934 0000949 102.8857 257.2211 14.79933811 36208","mean_motion":14.79933811,"eccentricity":9.49e-5,"inclination_deg":51.9004,"raan_deg":64.7934,"arg_perigee_deg":102.8857,"mean_anomaly_deg":257.2211,"bstar":-0.00011294,"rev_number":3620,"period_min":97.301648850565,"perigee_km":628.86804116058,"apogee_km":630.19809693968,"semimajor_km":7007.6700690501,"source":"CELESTRAK","updated_at":"2026-05-25T13:38:05.691958Z"}}}